ABL122 RKPC-RKPK

Flight info

Callsign ABL122
Flight time 0h 35m
Altitude 19000
Route AKPON1E AKPON Y571 ANROD KEVOX3
Aircraft A21N/M-SDE2E3FGHIRWXY/LB1

Departure

Time 2026-05-05 08:14
Airport Jeju International Airport (RKPC)

Arrival

Time 2026-05-05 08:49
Airport Gimhae International Airport (RKPK)
Time Latitude Longitude Altitude Speed Heading
2026-05-05 07:57 33.50720 126.49180 98 ft 0 kts 148°
2026-05-05 08:04 33.50727 126.49175 98 ft 2 kts 148°
2026-05-05 08:04 33.50737 126.49167 99 ft 2 kts 148°
2026-05-05 08:04 33.50749 126.49159 98 ft 2 kts 148°
2026-05-05 08:04 33.50760 126.49150 97 ft 2 kts 147°
2026-05-05 08:05 33.50772 126.49144 98 ft 2 kts 163°
2026-05-05 08:05 33.50785 126.49141 97 ft 2 kts 186°
2026-05-05 08:05 33.50797 126.49146 97 ft 2 kts 210°
2026-05-05 08:05 33.50808 126.49155 98 ft 2 kts 231°
2026-05-05 08:06 33.50808 126.49156 98 ft 0 kts 231°
2026-05-05 08:08 33.50799 126.49142 97 ft 8 kts 234°
2026-05-05 08:08 33.50760 126.49066 98 ft 12 kts 237°
2026-05-05 08:08 33.50712 126.48975 98 ft 14 kts 247°
2026-05-05 08:08 33.50756 126.48876 99 ft 16 kts 327°
2026-05-05 08:09 33.50785 126.48761 100 ft 17 kts 249°
2026-05-05 08:09 33.50719 126.48633 99 ft 19 kts 239°
2026-05-05 08:09 33.50649 126.48493 99 ft 20 kts 239°
2026-05-05 08:09 33.50573 126.48344 101 ft 22 kts 238°
2026-05-05 08:10 33.50491 126.48186 99 ft 23 kts 238°
2026-05-05 08:10 33.50404 126.48016 98 ft 25 kts 238°
2026-05-05 08:10 33.50312 126.47838 100 ft 26 kts 238°
2026-05-05 08:10 33.50214 126.47649 100 ft 27 kts 238°
2026-05-05 08:11 33.50112 126.47450 98 ft 29 kts 238°
2026-05-05 08:11 33.50005 126.47242 99 ft 30 kts 238°
2026-05-05 08:11 33.49897 126.47032 98 ft 15 kts 238°
2026-05-05 08:11 33.49917 126.46936 99 ft 14 kts 311°
2026-05-05 08:12 33.50005 126.46899 97 ft 15 kts 23°
2026-05-05 08:12 33.50042 126.46950 97 ft 0 kts 58°
2026-05-05 08:13 33.50061 126.46987 97 ft 27 kts 58°
2026-05-05 08:13 33.50291 126.47428 97 ft 96 kts 58°
2026-05-05 08:13 33.50748 126.48312 100 ft 151 kts 59°
2026-05-05 08:13 33.51338 126.49476 440 ft 163 kts 57°
2026-05-05 08:14 33.51921 126.50613 1128 ft 159 kts 57°
2026-05-05 08:14 33.52532 126.51800 1526 ft 179 kts 58°
2026-05-05 08:14 33.53223 126.53157 1982 ft 203 kts 59°
2026-05-05 08:14 33.54003 126.54686 2491 ft 230 kts 59°
2026-05-05 08:15 33.54889 126.56415 3006 ft 257 kts 59°
2026-05-05 08:15 33.55851 126.58304 3775 ft 270 kts 59°
2026-05-05 08:15 33.56834 126.60234 4802 ft 272 kts 58°
2026-05-05 08:15 33.57827 126.62176 5815 ft 274 kts 58°
2026-05-05 08:16 33.58834 126.64132 6777 ft 278 kts 58°
2026-05-05 08:16 33.59855 126.66115 7679 ft 283 kts 58°
2026-05-05 08:16 33.60902 126.68150 8411 ft 290 kts 58°
2026-05-05 08:16 33.61960 126.70216 8854 ft 293 kts 58°
2026-05-05 08:17 33.63032 126.72315 9000 ft 295 kts 58°
2026-05-05 08:17 33.64056 126.74462 9000 ft 295 kts 66°
2026-05-05 08:17 33.64706 126.76778 9436 ft 295 kts 74°
2026-05-05 08:17 33.65266 126.79162 10290 ft 302 kts 75°
2026-05-05 08:18 33.65856 126.81685 10737 ft 325 kts 75°
2026-05-05 08:18 33.66491 126.84378 11100 ft 348 kts 75°
2026-05-05 08:18 33.67168 126.87233 11661 ft 361 kts 74°
2026-05-05 08:18 33.67867 126.90169 12490 ft 367 kts 74°
2026-05-05 08:19 33.68572 126.93126 13336 ft 371 kts 74°
2026-05-05 08:19 33.69285 126.96123 14151 ft 375 kts 74°
2026-05-05 08:19 33.70006 126.99155 14855 ft 381 kts 74°
2026-05-05 08:19 33.70737 127.02227 15563 ft 386 kts 74°
2026-05-05 08:20 33.71478 127.05354 16250 ft 392 kts 74°
2026-05-05 08:20 33.72230 127.08522 16933 ft 397 kts 74°
2026-05-05 08:20 33.72992 127.11735 17597 ft 403 kts 74°
2026-05-05 08:20 33.73763 127.14991 18260 ft 408 kts 74°
2026-05-05 08:21 33.74544 127.18296 18812 ft 415 kts 74°
2026-05-05 08:21 33.75334 127.21648 19086 ft 418 kts 74°
2026-05-05 08:21 33.76109 127.24934 19141 ft 398 kts 74°
2026-05-05 08:21 33.76857 127.28111 19140 ft 394 kts 74°
2026-05-05 08:22 33.77636 127.31271 19135 ft 394 kts 70°
2026-05-05 08:22 33.78861 127.34198 19121 ft 393 kts 54°
2026-05-05 08:22 33.80591 127.36731 19137 ft 392 kts 47°
2026-05-05 08:22 33.82424 127.39154 19136 ft 391 kts 46°
2026-05-05 08:23 33.84260 127.41572 19130 ft 391 kts 46°
2026-05-05 08:23 33.86084 127.44005 19134 ft 391 kts 46°
2026-05-05 08:23 33.87902 127.46443 19128 ft 391 kts 47°
2026-05-05 08:23 33.89734 127.48914 19135 ft 391 kts 47°
2026-05-05 08:24 33.91543 127.51360 19135 ft 391 kts 47°
2026-05-05 08:24 33.92745 127.52988 19133 ft 391 kts 47°
2026-05-05 08:24 33.94544 127.55424 19134 ft 391 kts 47°
2026-05-05 08:24 33.96355 127.57877 19133 ft 391 kts 47°
2026-05-05 08:25 33.98774 127.61155 19137 ft 391 kts 47°
2026-05-05 08:25 33.99936 127.62729 19137 ft 391 kts 47°
2026-05-05 08:25 34.01771 127.65220 19135 ft 390 kts 47°
2026-05-05 08:25 34.03571 127.67670 19131 ft 390 kts 47°
2026-05-05 08:26 34.05371 127.70122 19131 ft 390 kts 47°
2026-05-05 08:26 34.07172 127.72571 19131 ft 390 kts 47°
2026-05-05 08:26 34.08970 127.75022 19136 ft 390 kts 47°
2026-05-05 08:26 34.10770 127.77479 19134 ft 390 kts 47°
2026-05-05 08:27 34.12564 127.79924 19136 ft 390 kts 47°
2026-05-05 08:27 34.14365 127.82391 19138 ft 390 kts 47°
2026-05-05 08:27 34.16161 127.84841 19136 ft 390 kts 47°
2026-05-05 08:27 34.17957 127.87292 19137 ft 390 kts 47°
2026-05-05 08:28 34.19757 127.89753 19131 ft 390 kts 47°
2026-05-05 08:28 34.21553 127.92203 19131 ft 390 kts 47°
2026-05-05 08:28 34.23350 127.94660 19134 ft 390 kts 47°
2026-05-05 08:28 34.25145 127.97122 19135 ft 390 kts 47°
2026-05-05 08:29 34.26938 127.99576 19137 ft 390 kts 47°
2026-05-05 08:29 34.28731 128.02033 19140 ft 389 kts 47°
2026-05-05 08:29 34.30521 128.04490 19142 ft 389 kts 47°
2026-05-05 08:30 34.34100 128.09415 19135 ft 389 kts 47°
2026-05-05 08:30 34.35886 128.11880 19140 ft 389 kts 47°
2026-05-05 08:30 34.37671 128.14342 19139 ft 390 kts 47°
2026-05-05 08:30 34.39456 128.16804 19137 ft 389 kts 47°
2026-05-05 08:31 34.41244 128.19274 19139 ft 389 kts 47°
2026-05-05 08:31 34.43031 128.21730 19131 ft 389 kts 47°
2026-05-05 08:31 34.44821 128.24199 19131 ft 389 kts 47°
2026-05-05 08:31 34.46597 128.26665 19138 ft 389 kts 48°
2026-05-05 08:32 34.48380 128.29140 19138 ft 389 kts 47°
2026-05-05 08:32 34.50186 128.31639 19140 ft 389 kts 47°
2026-05-05 08:32 34.51945 128.34070 18908 ft 379 kts 47°
2026-05-05 08:32 34.53675 128.36464 18469 ft 376 kts 48°
2026-05-05 08:33 34.55385 128.38838 17941 ft 373 kts 48°
2026-05-05 08:33 34.57086 128.41203 17432 ft 373 kts 48°
2026-05-05 08:33 34.58800 128.43581 16956 ft 374 kts 48°
2026-05-05 08:33 34.60514 128.45954 16511 ft 374 kts 48°
2026-05-05 08:34 34.62353 128.48181 16064 ft 373 kts 37°
2026-05-05 08:34 34.64618 128.49665 15642 ft 370 kts 17°
2026-05-05 08:34 34.67126 128.50199 15241 ft 366 kts
2026-05-05 08:34 34.69665 128.50316 14850 ft 365 kts 360°
2026-05-05 08:35 34.72200 128.50409 14436 ft 365 kts
2026-05-05 08:35 34.74735 128.50532 14019 ft 365 kts
2026-05-05 08:35 34.77274 128.50678 13532 ft 362 kts
2026-05-05 08:35 34.79778 128.50831 13077 ft 357 kts
2026-05-05 08:36 34.82230 128.50986 12674 ft 351 kts
2026-05-05 08:36 34.84648 128.51140 12278 ft 347 kts
2026-05-05 08:36 34.87067 128.51296 11874 ft 348 kts
2026-05-05 08:36 34.89485 128.51452 11472 ft 348 kts
2026-05-05 08:37 34.91934 128.51611 11087 ft 348 kts
2026-05-05 08:37 34.94302 128.51765 10777 ft 342 kts
2026-05-05 08:37 34.96640 128.51918 10581 ft 331 kts
2026-05-05 08:37 34.98932 128.52067 10413 ft 320 kts
2026-05-05 08:38 35.01122 128.52210 10260 ft 309 kts
2026-05-05 08:38 35.03238 128.52347 9996 ft 303 kts
2026-05-05 08:38 35.05337 128.52482 9610 ft 300 kts
2026-05-05 08:38 35.07422 128.52617 9228 ft 300 kts
2026-05-05 08:39 35.09509 128.52754 8867 ft 301 kts
2026-05-05 08:39 35.11589 128.52956 8507 ft 299 kts
2026-05-05 08:39 35.13522 128.53827 8161 ft 299 kts 32°
2026-05-05 08:39 35.15034 128.55531 7845 ft 297 kts 56°
2026-05-05 08:40 35.15839 128.57814 7548 ft 292 kts 81°
2026-05-05 08:40 35.15856 128.59942 7301 ft 286 kts 103°
2026-05-05 08:40 35.15151 128.62173 6997 ft 280 kts 126°
2026-05-05 08:40 35.13895 128.63785 6704 ft 276 kts 148°
2026-05-05 08:41 35.12195 128.64773 6400 ft 271 kts 165°
2026-05-05 08:41 35.10404 128.65475 6099 ft 271 kts 163°
2026-05-05 08:41 35.08656 128.66359 5792 ft 272 kts 157°
2026-05-05 08:41 35.06986 128.67446 5483 ft 273 kts 152°
2026-05-05 08:42 35.05387 128.68704 5187 ft 274 kts 147°
2026-05-05 08:42 35.03873 128.70117 4889 ft 274 kts 142°
2026-05-05 08:42 35.02458 128.71688 4571 ft 274 kts 136°
2026-05-05 08:42 35.01371 128.73624 4224 ft 275 kts 112°
2026-05-05 08:43 35.01090 128.75894 3903 ft 277 kts 86°
2026-05-05 08:43 35.01652 128.78149 3558 ft 277 kts 59°
2026-05-05 08:43 35.02936 128.79862 3230 ft 274 kts 33°
2026-05-05 08:43 35.04645 128.80739 3035 ft 263 kts
2026-05-05 08:44 35.06414 128.81133 2923 ft 256 kts 18°
2026-05-05 08:44 35.07942 128.82163 2775 ft 245 kts 36°
2026-05-05 08:44 35.09250 128.83386 2590 ft 229 kts 37°
2026-05-05 08:44 35.10467 128.84549 2533 ft 218 kts 36°
2026-05-05 08:45 35.11590 128.85626 2585 ft 191 kts 37°
2026-05-05 08:45 35.12567 128.86569 2462 ft 165 kts 37°
2026-05-05 08:45 35.13423 128.87396 1995 ft 149 kts 39°
2026-05-05 08:45 35.14237 128.88167 1709 ft 152 kts 38°
2026-05-05 08:46 35.15087 128.88974 1680 ft 153 kts 38°
2026-05-05 08:46 35.15963 128.89706 1636 ft 152 kts 27°
2026-05-05 08:46 35.16944 128.90121 1560 ft 148 kts
2026-05-05 08:46 35.17960 128.90149 1421 ft 146 kts 350°
2026-05-05 08:47 35.18959 128.89989 1326 ft 145 kts 346°
2026-05-05 08:47 35.19952 128.89833 1213 ft 145 kts 355°
2026-05-05 08:47 35.20948 128.90060 1103 ft 149 kts 25°
2026-05-05 08:47 35.21703 128.90913 992 ft 149 kts 64°
2026-05-05 08:48 35.21790 128.92105 881 ft 139 kts 119°
2026-05-05 08:48 35.21168 128.92896 629 ft 126 kts 151°
2026-05-05 08:48 35.20365 128.93306 424 ft 124 kts 166°
2026-05-05 08:48 35.19525 128.93494 237 ft 123 kts 176°
2026-05-05 08:49 35.18662 128.93605 65 ft 122 kts 175°
2026-05-05 08:49 35.17877 128.93711 29 ft 103 kts 176°
2026-05-05 08:49 35.17471 128.93756 32 ft 15 kts 174°
2026-05-05 08:49 35.17432 128.93761 32 ft 12 kts 174°
2026-05-05 08:50 35.17291 128.93781 31 ft 29 kts 172°
2026-05-05 08:50 35.17068 128.93809 29 ft 24 kts 181°
2026-05-05 08:50 35.16949 128.93878 27 ft 0 kts 113°
2026-05-05 08:50 35.16949 128.93882 27 ft 1 kts 101°
2026-05-05 08:51 35.16949 128.93922 27 ft 11 kts 87°
2026-05-05 08:51 35.16958 128.94059 27 ft 18 kts 91°
2026-05-05 08:51 35.16968 128.94222 28 ft 20 kts 81°
2026-05-05 08:51 35.16982 128.94330 29 ft 13 kts 81°
2026-05-05 08:52 35.16996 128.94452 29 ft 15 kts 83°
2026-05-05 08:52 35.16978 128.94583 29 ft 17 kts 111°
2026-05-05 08:52 35.16933 128.94703 29 ft 13 kts 113°
2026-05-05 08:52 35.16922 128.94766 29 ft 1 kts 54°
2026-05-05 08:53 35.16933 128.94785 29 ft 4 kts 58°
2026-05-05 08:53 35.16962 128.94816 29 ft 7 kts 25°
2026-05-05 08:53 35.16975 128.94823 29 ft 0 kts 23°